Franklin, NC

5:08 AM EDT on May 27, 2018 (GMT -0400)
Franklin

Weather History for K1A5 - November, 2011

Change the Weather History Date:

Tuesday, November 8, 2011

  Actual Average (KTOC) Record (KTOC)
Temperature  
Mean Temperature 50 °F -  
Max Temperature 68 °F 63 °F 70 °F (2016)
Min Temperature 32 °F 40 °F 36 °F (2014)
Degree Days  
Heating Degree Days 15    
Moisture  
Dew Point 37 °F    
Average Humidity 76    
Maximum Humidity 100    
Minimum Humidity 32    
Precipitation  
Precipitation 0.00 in - - ()
Sea Level Pressure  
Sea Level Pressure 30.26 in    
Wind  
Wind Speed 0 mph (East)    
Max Wind Speed 6 mph    
Max Gust Speed -    
Visibility 6 miles    
Events Fog    
Averages and records for this station are not official NWS values.
T = Trace of Precipitation, MM = Missing Value Source: NWS Daily Summary

Daily Weather History Graph

Daily Weather History Graph

Search for Another Location

Airport or City:

Astronomy

Nov. 08, 2011 Rise Set
Actual Time 7:01 AM EST 5:32 PM EST
Civil Twilight 6:34 AM EST 5:59 PM EST
Nautical Twilight 6:04 AM EST 6:29 PM EST
Astronomical Twilight 5:34 AM EST 6:59 PM EST
Moon 4:10 PM EST (11/8) 5:01 AM EST (11/8)
Length of Visible Light 11h 24m
Length of Day
10h 31m
Waxing Gibbous, 96% of the Moon is Illuminated
Nov 8
Waxing Gibbous
Nov 10
Full
Nov 18
Last Quarter
Nov 25
New
Dec 2
First Quarter

Hourly Weather History & Observations

Time (EST) Temp. Dew Point Humidity Pressure Visibility Wind Dir Wind Speed Gust Speed Precip Events Conditions
12:15 AM 33.8 °F 32.0 °F 93% 30.33 in 7.0 mi Calm Calm - N/A   Clear
12:35 AM 32.0 °F 32.0 °F 100% 30.32 in 10.0 mi Calm Calm - N/A   Clear
12:55 AM 32.0 °F 32.0 °F 100% 30.32 in 10.0 mi Calm Calm - N/A   Mostly Cloudy
1:15 AM 32.0 °F 32.0 °F 100% 30.31 in 10.0 mi Calm Calm - N/A   Overcast
1:35 AM 32.0 °F 32.0 °F 100% 30.31 in 4.0 mi Calm Calm - N/A   Mostly Cloudy
1:55 AM 32.0 °F 30.2 °F 93% 30.31 in 1.8 mi Calm Calm - N/A   Mist
2:15 AM 32.0 °F 30.2 °F 93% 30.31 in 4.0 mi Calm Calm - N/A   Scattered Clouds
2:35 AM 32.0 °F 32.0 °F 100% 30.31 in 0.2 mi Calm Calm - N/A Fog Fog
2:55 AM 32.0 °F 32.0 °F 100% 30.30 in 0.8 mi Calm Calm - N/A   Overcast
3:15 AM 32.0 °F 32.0 °F 100% 30.30 in 0.5 mi Calm Calm - N/A Fog Fog
3:35 AM 32.0 °F 32.0 °F 100% 30.30 in 0.2 mi Calm Calm - N/A Fog Fog
4:15 AM 32.0 °F 32.0 °F 100% 30.31 in 0.2 mi Calm Calm - N/A Fog Fog
4:35 AM 33.8 °F 32.0 °F 93% 30.32 in 0.2 mi Calm Calm - N/A Fog Fog
4:55 AM 33.8 °F 32.0 °F 93% 30.32 in 0.2 mi Calm Calm - N/A Fog Fog
5:15 AM 33.8 °F 32.0 °F 93% 30.32 in 0.2 mi Calm Calm - N/A Fog Fog
5:35 AM 33.8 °F 32.0 °F 93% 30.32 in 0.2 mi Calm Calm - N/A Fog Fog
5:55 AM 33.8 °F 32.0 °F 93% 30.32 in 0.2 mi Calm Calm - N/A Fog Fog
6:35 AM 33.8 °F 32.0 °F 93% 30.32 in 0.2 mi Calm Calm - N/A Fog Fog
6:55 AM 33.8 °F 32.0 °F 93% 30.32 in 0.2 mi Calm Calm - N/A Fog Fog
7:15 AM 35.6 °F 33.8 °F 93% 30.32 in 0.2 mi Calm Calm - N/A Fog Fog
7:35 AM 35.6 °F 33.8 °F 93% 30.32 in 0.2 mi Calm Calm - N/A Fog Fog
7:55 AM 35.6 °F 33.8 °F 93% 30.33 in 0.2 mi Calm Calm - N/A Fog Fog
8:15 AM 35.6 °F 33.8 °F 93% 30.34 in 0.2 mi Calm Calm - N/A Fog Fog
8:35 AM 35.6 °F 33.8 °F 93% 30.34 in 0.2 mi Calm Calm - N/A Fog Fog
9:15 AM 37.4 °F 35.6 °F 93% 30.34 in 0.2 mi Calm Calm - N/A Fog Fog
9:35 AM 37.4 °F 35.6 °F 93% 30.33 in 0.8 mi Calm Calm - N/A   Overcast
9:55 AM 39.2 °F 37.4 °F 93% 30.33 in 1.0 mi Calm Calm - N/A   Overcast
10:15 AM 41.0 °F 41.0 °F 100% 30.32 in 0.5 mi Calm Calm - N/A Fog Fog
10:35 AM 42.8 °F 41.0 °F 93% 30.31 in 10.0 mi Calm Calm - N/A   Mostly Cloudy
10:55 AM 46.4 °F 44.6 °F 93% 30.31 in 10.0 mi Calm Calm - N/A   Clear
11:15 AM 50.0 °F 46.4 °F 87% 30.29 in 10.0 mi Calm Calm - N/A   Clear
11:35 AM 51.8 °F 50.0 °F 94% 30.28 in 10.0 mi Calm Calm - N/A   Clear
11:55 AM 57.2 °F 46.4 °F 67% 30.27 in 10.0 mi Calm Calm - N/A   Clear
12:15 PM 60.8 °F 44.6 °F 55% 30.26 in 10.0 mi Calm Calm - N/A   Clear
12:35 PM 62.6 °F 42.8 °F 48% 30.25 in 10.0 mi Calm Calm - N/A   Clear
12:55 PM 62.6 °F 39.2 °F 42% 30.23 in 10.0 mi Calm Calm - N/A   Clear
1:15 PM 64.4 °F 41.0 °F 42% 30.22 in 10.0 mi Calm Calm - N/A   Clear
1:35 PM 64.4 °F 39.2 °F 40% 30.21 in 10.0 mi Calm Calm - N/A   Clear
1:55 PM 66.2 °F 39.2 °F 37% 30.20 in 10.0 mi Calm Calm - N/A   Clear
2:15 PM 68.0 °F 37.4 °F 33% 30.20 in 10.0 mi East 3.5 mph - N/A   Clear
2:35 PM 66.2 °F 37.4 °F 35% 30.19 in 10.0 mi Calm Calm - N/A   Clear
3:15 PM 68.0 °F 37.4 °F 33% 30.18 in 10.0 mi Calm Calm - N/A   Clear
3:35 PM 68.0 °F 37.4 °F 33% 30.17 in 10.0 mi Calm Calm - N/A   Clear
3:55 PM 68.0 °F 37.4 °F 33% 30.17 in 10.0 mi East 4.6 mph - N/A   Clear
4:15 PM 68.0 °F 37.4 °F 33% 30.17 in 10.0 mi East 4.6 mph - N/A   Clear
4:35 PM 66.2 °F 35.6 °F 32% 30.17 in 10.0 mi East 5.8 mph - N/A   Clear
4:55 PM 64.4 °F 37.4 °F 37% 30.17 in 10.0 mi East 5.8 mph - N/A   Clear
5:15 PM 62.6 °F 41.0 °F 45% 30.17 in 10.0 mi Calm Calm - N/A   Clear
5:35 PM 60.8 °F 42.8 °F 52% 30.16 in 10.0 mi East 4.6 mph - N/A   Clear
5:55 PM 60.8 °F 42.8 °F 52% 30.17 in 10.0 mi East 3.5 mph - N/A   Clear
6:15 PM 59.0 °F 42.8 °F 55% 30.18 in 10.0 mi Calm Calm - N/A   Clear
6:35 PM 53.6 °F 42.8 °F 67% 30.19 in 10.0 mi East 4.6 mph - N/A   Clear
6:55 PM 50.0 °F 41.0 °F 71% 30.19 in 10.0 mi Calm Calm - N/A   Clear
7:15 PM 50.0 °F 42.8 °F 76% 30.19 in 10.0 mi East 3.5 mph - N/A   Clear
7:35 PM 46.4 °F 41.0 °F 81% 30.19 in 10.0 mi Calm Calm - N/A   Clear
7:55 PM 44.6 °F 39.2 °F 81% 30.20 in 10.0 mi Calm Calm - N/A   Clear
8:15 PM 42.8 °F 39.2 °F 87% 30.19 in 10.0 mi Calm Calm - N/A   Clear
8:35 PM 42.8 °F 39.2 °F 87% 30.20 in 10.0 mi Calm Calm - N/A   Clear
8:55 PM 41.0 °F 37.4 °F 87% 30.20 in 7.0 mi Calm Calm - N/A   Clear
9:15 PM 41.0 °F 37.4 °F 87% 30.20 in 7.0 mi Calm Calm - N/A   Clear
9:35 PM 39.2 °F 35.6 °F 87% 30.20 in 7.0 mi Calm Calm - N/A   Clear
9:55 PM 37.4 °F 35.6 °F 93% 30.20 in 7.0 mi Calm Calm - N/A   Clear
10:15 PM 37.4 °F 33.8 °F 87% 30.21 in 7.0 mi Calm Calm - N/A   Clear
10:35 PM 35.6 °F 33.8 °F 93% 30.21 in 10.0 mi Calm Calm - N/A   Clear
10:55 PM 35.6 °F 33.8 °F 93% 30.20 in 10.0 mi Calm Calm - N/A   Clear
11:15 PM 35.6 °F 33.8 °F 93% 30.20 in 10.0 mi Calm Calm - N/A   Clear
11:35 PM 35.6 °F 33.8 °F 93% 30.20 in 7.0 mi Calm Calm - N/A   Clear
11:55 PM 35.6 °F 32.0 °F 87% 30.19 in 7.0 mi Calm Calm - N/A   Clear